Location: Castillon
(43.0896°N, 0.2156°E)
Time: 16:34:22
(UTC+00:00)

OBJECT-B - Pass Details

Date: 16 June 2021
Orbit: 414 x 423 km, 97.0° (Epoch: 05 June)

Event Time Altitude Azimuth Distance (km) Brightness Sun altitude
Rises 20:36:26 0° 204° (SSW) 2,351 4.3 -8.7°
Reaches altitude 10° 20:39:01 10° 228° (SW) 1,492 3.6 -9.1°
Maximum altitude 20:41:01 16° 267° (W) 1,203 3.7 -9.3°
Drops below altitude 10° 20:43:02 10° 306° (NW) 1,499 5.1 -9.6°
Sets 20:45:39 0° 330° (NNW) 2,367 6.4 -9.9°
